| time (UTC) | temp F | wind direction | speed knots | gust knots | rain 1hr in | rain 24hr in | rain mn in | humidity % | barometer mb |
| 20260906064603 | 67 | 14 | 0.0 | 3.5 | 0.00 | 0.00 | 0.00 | 88 | 1020.0 |
| 20260906063101 | 67 | 0 | 0.0 | 1.7 | 0.00 | 0.00 | 0.00 | 87 | 1020.2 |
| 20260906061610 | 67 | 0 | 0.0 | 3.5 | 0.00 | 0.00 | 0.00 | 87 | 1020.0 |
| 20260906054606 | 68 | 52 | 0.0 | 3.5 | 0.00 | 0.00 | 0.00 | 89 | 1019.9 |
| 20260906053102 | 68 | 21 | 0.9 | 5.2 | 0.00 | 0.00 | 0.00 | 89 | 1019.8 |
| 20260906051605 | 69 | 14 | 0.0 | 4.3 | 0.00 | 0.00 | 0.00 | 90 | 1019.8 |
| 20260906050058 | 70 | 11 | 0.0 | 4.3 | 0.00 | 0.00 | 0.00 | 90 | 1019.6 |
| 20260906044601 | 70 | 29 | 1.7 | 6.1 | 0.00 | 0.00 | 0.00 | 90 | 1019.5 |
| 20260906043101 | 71 | 36 | 0.9 | 5.2 | 0.00 | 0.00 | 0.00 | 90 | 1019.3 |
| 20260906041559 | 71 | 20 | 0.9 | 5.2 | 0.00 | 0.00 | 0.00 | 90 | 1019.2 |
| 20260906040056 | 72 | 48 | 1.7 | 5.2 | 0.00 | 0.00 | 0.00 | 89 | 1019.3 |
| 20260906034602 | 72 | 0 | 2.6 | 7.0 | 0.00 | 0.00 | 0.00 | 89 | 1019.4 |
| 20260906033102 | 73 | 352 | 1.7 | 6.1 | 0.00 | 0.00 | 0.00 | 89 | 1019.2 |
| 20260906031603 | 73 | 18 | 0.9 | 9.6 | 0.00 | 0.00 | 0.00 | 89 | 1019.1 |
| 20260906030105 | 73 | 130 | 0.9 | 8.7 | 0.00 | 0.00 | 0.00 | 89 | 1019.1 |
| 20260906024603 | 74 | 0 | 0.9 | 5.2 | 0.00 | 0.00 | 0.00 | 90 | 1019.1 |
| 20260906023100 | 74 | 21 | 1.7 | 7.8 | 0.00 | 0.00 | 0.00 | 89 | 1018.8 |
| 20260906021557 | 74 | 13 | 1.7 | 7.0 | 0.00 | 0.00 | 0.00 | 89 | 1018.7 |
| 20260906020111 | 75 | 350 | 0.9 | 7.8 | 0.00 | 0.00 | 0.00 | 88 | 1018.5 |
| 20260906014602 | 75 | 337 | 1.7 | 9.6 | 0.00 | 0.00 | 0.00 | 88 | 1018.7 |
| 20260906013103 | 76 | 32 | 1.7 | 6.1 | 0.00 | 0.00 | 0.00 | 88 | 1018.3 |
| 20260906011600 | 76 | 96 | 0.9 | 7.0 | 0.00 | 0.00 | 0.00 | 87 | 1017.9 |
| 20260906010103 | 77 | 0 | 0.0 | 6.1 | 0.00 | 0.00 | 0.00 | 86 | 1017.5 |
| 20260906004558 | 77 | 0 | 0.9 | 7.0 | 0.00 | 0.00 | 0.00 | 87 | 1017.6 |
| 20260906003102 | 78 | 14 | 0.9 | 7.8 | 0.00 | 0.00 | 0.00 | 86 | 1017.8 |
| 20260906001600 | 79 | 336 | 1.7 | 7.0 | 0.00 | 0.00 | 0.00 | 86 | 1017.3 |
| 20260905234604 | 80 | 0 | 0.0 | 7.0 | 0.00 | 0.00 | 0.00 | 83 | 1017.1 |
| 20260905233100 | 81 | 0 | 0.9 | 3.5 | 0.00 | 0.00 | 0.00 | 82 | 1017.2 |
| 20260905231603 | 81 | 0 | 0.0 | 0.0 | 0.00 | 0.00 | 0.00 | 82 | 1017.2 |
| 20260905230100 | 82 | 0 | 0.0 | 3.5 | 0.00 | 0.00 | 0.00 | 81 | 1017.2 |
| 20260905224608 | 82 | 130 | 0.0 | 3.5 | 0.00 | 0.00 | 0.00 | 82 | 1017.2 |
| 20260905223103 | 82 | 17 | 1.7 | 6.1 | 0.00 | 0.00 | 0.00 | 81 | 1017.0 |
| 20260905221605 | 83 | 0 | 0.0 | 2.6 | 0.00 | 0.00 | 0.00 | 80 | 1017.0 |
| 20260905220108 | 83 | 336 | 0.0 | 7.8 | 0.00 | 0.00 | 0.00 | 80 | 1016.7 |
| 20260905214606 | 83 | 24 | 1.7 | 6.1 | 0.00 | 0.00 | 0.00 | 79 | 1016.5 |
| 20260905213100 | 84 | 66 | 1.7 | 8.7 | 0.00 | 0.00 | 0.00 | 77 | 1016.3 |
| 20260905211628 | 85 | 16 | 2.6 | 7.8 | 0.00 | 0.00 | 0.00 | 74 | 1016.2 |
| 20260905210122 | 87 | 5 | 2.6 | 7.0 | 0.00 | 0.00 | 0.00 | 71 | 1016.2 |
| 20260905204608 | 89 | 343 | 1.7 | 4.3 | 0.00 | 0.00 | 0.00 | 68 | 1016.4 |
| 20260905203119 | 89 | 26 | 0.9 | 7.0 | 0.00 | 0.00 | 0.00 | 66 | 1016.6 |
| 20260905201602 | 89 | 16 | 0.9 | 5.2 | 0.00 | 0.00 | 0.00 | 67 | 1016.8 |
| 20260905194606 | 90 | 339 | 0.9 | 3.5 | 0.00 | 0.08 | 0.00 | 65 | 1017.0 |
| 20260905193100 | 90 | 200 | 0.9 | 5.2 | 0.00 | 0.08 | 0.00 | 65 | 1017.2 |
| 20260905191602 | 90 | 0 | 0.9 | 5.2 | 0.00 | 0.08 | 0.00 | 66 | 1017.4 |
| 20260905190057 | 89 | 209 | 2.6 | 7.0 | 0.00 | 0.08 | 0.00 | 64 | 1017.5 |
| 20260905184608 | 89 | 96 | 1.7 | 7.0 | 0.00 | 0.08 | 0.00 | 64 | 1017.6 |
| 20260905183101 | 89 | 142 | 1.7 | 6.1 | 0.00 | 0.08 | 0.00 | 63 | 1017.8 |
| 20260905181610 | 88 | 254 | 0.9 | 7.0 | 0.00 | 0.08 | 0.00 | 65 | 1018.0 |
| 20260905180107 | 87 | 282 | 1.7 | 7.0 | 0.00 | 0.08 | 0.00 | 64 | 1018.2 |
| 20260905174602 | 87 | 282 | 3.5 | 10.4 | 0.00 | 0.08 | 0.00 | 64 | 1018.2 |
| 20260905173100 | 86 | 254 | 2.6 | 7.0 | 0.00 | 0.08 | 0.00 | 67 | 1018.1 |
| 20260905171601 | 85 | 160 | 2.6 | 8.7 | 0.00 | 0.08 | 0.00 | 68 | 1018.3 |
| 20260905170107 | 84 | 333 | 1.7 | 7.0 | 0.00 | 0.08 | 0.00 | 69 | 1018.6 |
| 20260905164603 | 82 | 315 | 1.7 | 6.1 | 0.00 | 0.08 | 0.00 | 72 | 1018.9 |
| 20260905163102 | 81 | 0 | 1.7 | 3.5 | 0.00 | 0.08 | 0.00 | 77 | 1019.0 |
| 20260905161601 | 79 | 172 | 0.0 | 1.7 | 0.00 | 0.08 | 0.00 | 81 | 1019.3 |
| 20260905160133 | 77 | 0 | 0.0 | 2.6 | 0.00 | 0.08 | 0.00 | 83 | 1019.4 |
| 20260905154606 | 77 | 86 | 0.0 | 8.7 | 0.00 | 0.08 | 0.00 | 81 | 1019.3 |
| 20260905153059 | 79 | 23 | 1.7 | 4.3 | 0.00 | 0.07 | 0.00 | 75 | 1019.9 |
| 20260905151609 | 79 | 0 | 0.9 | 7.8 | 0.00 | 0.07 | 0.00 | 74 | 1019.0 |
| 20260905150101 | 78 | 190 | 2.6 | 7.8 | 0.00 | 0.07 | 0.00 | 76 | 1018.7 |
| 20260905144602 | 77 | 191 | 2.6 | 7.8 | 0.00 | 0.07 | 0.00 | 77 | 1018.5 |
| 20260905143104 | 76 | 137 | 1.7 | 7.0 | 0.00 | 0.07 | 0.00 | 78 | 1018.6 |
| 20260905141559 | 75 | 188 | 3.5 | 9.6 | 0.00 | 0.07 | 0.00 | 79 | 1018.6 |
| 20260905140107 | 74 | 132 | 3.5 | 8.7 | 0.00 | 0.07 | 0.00 | 81 | 1018.4 |
| 20260905134617 | 73 | 179 | 2.6 | 7.8 | 0.00 | 0.07 | 0.00 | 82 | 1018.6 |
| 20260905133102 | 73 | 181 | 3.5 | 8.7 | 0.00 | 0.07 | 0.00 | 84 | 1018.6 |
| 20260905131606 | 72 | 179 | 2.6 | 10.4 | 0.00 | 0.07 | 0.00 | 86 | 1018.9 |
| 20260905130059 | 71 | 163 | 2.6 | 5.2 | 0.00 | 0.07 | 0.00 | 88 | 1019.1 |
| 20260905124557 | 70 | 119 | 0.9 | 7.0 | 0.00 | 0.07 | 0.00 | 89 | 1019.6 |
| 20260905123105 | 69 | 134 | 1.7 | 6.1 | 0.00 | 0.07 | 0.00 | 89 | 1019.5 |
| 20260905121601 | 69 | 116 | 1.7 | 6.1 | 0.00 | 0.07 | 0.00 | 89 | 1019.3 |
| 20260905120117 | 69 | 119 | 1.7 | 7.0 | 0.00 | 0.07 | 0.00 | 88 | 1019.0 |
| 20260905114558 | 69 | 111 | 1.7 | 5.2 | 0.00 | 0.07 | 0.00 | 88 | 1019.0 |
| 20260905113104 | 69 | 146 | 1.7 | 8.7 | 0.00 | 0.07 | 0.00 | 88 | 1019.1 |
| 20260905111613 | 69 | 126 | 0.9 | 9.6 | 0.00 | 0.07 | 0.00 | 87 | 1019.0 |
| 20260905110100 | 70 | 125 | 3.5 | 11.3 | 0.00 | 0.07 | 0.00 | 86 | 1019.0 |
| 20260905104603 | 70 | 105 | 3.5 | 11.3 | 0.00 | 0.07 | 0.00 | 86 | 1019.1 |
| 20260905103059 | 70 | 71 | 4.3 | 9.6 | 0.00 | 0.07 | 0.00 | 85 | 1019.5 |
| 20260905101607 | 71 | 98 | 3.5 | 9.6 | 0.00 | 0.07 | 0.00 | 85 | 1019.7 |
| 20260905094600 | 71 | 139 | 4.3 | 11.3 | 0.00 | 0.07 | 0.00 | 82 | 1019.7 |
| 20260905093059 | 72 | 114 | 1.7 | 8.7 | 0.00 | 0.07 | 0.00 | 81 | 1019.6 |
| 20260905091619 | 73 | 307 | 2.6 | 11.3 | 0.00 | 0.07 | 0.00 | 81 | 1019.4 |
| 20260905090120 | 75 | 19 | 0.9 | 6.1 | 0.00 | 0.07 | 0.00 | 90 | 1019.0 |
| 20260905084608 | 75 | 0 | 0.0 | 0.0 | 0.00 | 0.07 | 0.00 | 90 | 1018.3 |
| 20260905083100 | 75 | 0 | 0.0 | 0.0 | 0.00 | 0.07 | 0.00 | 89 | 1017.9 |
| 20260905081555 | 75 | 0 | 0.0 | 1.7 | 0.00 | 0.07 | 0.00 | 89 | 1017.9 |
| 20260905080106 | 76 | 0 | 0.0 | 0.0 | 0.00 | 0.07 | 0.00 | 88 | 1017.7 |
| 20260905074601 | 76 | 0 | 0.0 | 0.9 | 0.00 | 0.07 | 0.00 | 88 | 1017.8 |
| 20260905073103 | 76 | 0 | 0.0 | 2.6 | 0.00 | 0.07 | 0.00 | 88 | 1017.7 |
| 20260905071603 | 76 | 180 | 0.0 | 2.6 | 0.00 | 0.07 | 0.00 | 88 | 1017.2 |
| 20260905070119 | 76 | 0 | 0.9 | 4.3 | 0.00 | 0.07 | 0.00 | 87 | 1016.8 |